Chattanooga, TN

11:48 AM EDT on October 19, 2017 (GMT -0400)
Lovell

Weather History for KCHA - April, 2012

Change the Weather History Date:

Friday, April 20, 2012

  Actual Average Record
Temperature  
Mean Temperature 65 °F 62 °F  
Max Temperature 73 °F 74 °F 89 °F (1971)
Min Temperature 56 °F 50 °F 28 °F (1983)
Degree Days  
Heating Degree Days 0 5  
Month to date heating degree days 63 138  
Since 1 July heating degree days 2375 3164  
Cooling Degree Days 0 1  
Month to date cooling degree days 40 20  
Year to date cooling degree days 113 27  
Growing Degree Days 14 (Base 50)    
Moisture  
Dew Point 57 °F    
Average Humidity 77    
Maximum Humidity 93    
Minimum Humidity 61    
Precipitation  
Precipitation T in 0.12 in 1.87 in (1920)
Month to date precipitation 0.69 2.67  
Year to date precipitation 15.44 17.40  
Snow  
Snow 0.00 in 0.00 in - ()
Month to date snowfall 0.0 0.1  
Since 1 July snowfall T 3.9  
Snow Depth 0.00 in    
Sea Level Pressure  
Sea Level Pressure 29.91 in    
Wind  
Wind Speed 5 mph (South)    
Max Wind Speed 13 mph    
Max Gust Speed 16 mph    
Visibility 10 miles    
Events      
T = Trace of Precipitation, MM = Missing Value Source: NWS Daily Summary

Daily Weather History Graph

Daily Weather History Graph

Search for Another Location

Airport or City:

Trip Planner

Search our weather history database for the weather conditions in past years. The results will help you decide how hot, cold, wet, or windy it might be!

Date:

Astronomy

Apr. 20, 2012 Rise Set
Actual Time 7:01 AM EDT 8:17 PM EDT
Civil Twilight 6:35 AM EDT 8:44 PM EDT
Nautical Twilight 6:04 AM EDT 9:15 PM EDT
Astronomical Twilight 5:31 AM EDT 9:48 PM EDT
Moon 6:24 AM EDT (4/20) 8:00 PM EDT (4/20)
Length of Visible Light 14h 08m
Length of Day
13h 15m
Waning Crescent, 0% of the Moon is Illuminated
Apr 20
Waning Crescent
Apr 21
New
Apr 29
First Quarter
May 5
Full
May 12
Last Quarter

Hourly Weather History & Observations

Time (EDT) Temp. Dew Point Humidity Pressure Visibility Wind Dir Wind Speed Gust Speed Precip Events Conditions
12:53 AM 59.0 °F 55.0 °F 87% 29.97 in 10.0 mi Calm Calm - N/A   Clear
1:53 AM 57.9 °F 54.0 °F 87% 29.95 in 10.0 mi Calm Calm - N/A   Clear
2:53 AM 55.9 °F 53.1 °F 90% 29.93 in 10.0 mi Calm Calm - N/A   Clear
3:53 AM 57.9 °F 55.0 °F 90% 29.92 in 10.0 mi Calm Calm - N/A   Mostly Cloudy
4:53 AM 59.0 °F 55.0 °F 87% 29.92 in 10.0 mi WSW 3.5 mph - N/A   Overcast
5:53 AM 61.0 °F 55.9 °F 83% 29.91 in 8.0 mi South 3.5 mph - N/A   Overcast
6:08 AM 62.6 °F 55.4 °F 77% 29.93 in 8.0 mi SSE 3.5 mph - N/A   Overcast
6:53 AM 62.1 °F 57.0 °F 84% 29.93 in 10.0 mi SSE 3.5 mph - N/A   Overcast
7:53 AM 60.8 °F 57.2 °F 88% 29.95 in 10.0 mi SE 5.8 mph - N/A   Overcast
8:53 AM 63.0 °F 57.0 °F 81% 29.95 in 10.0 mi SSE 4.6 mph - N/A   Overcast
9:53 AM 63.0 °F 57.0 °F 81% 29.96 in 10.0 mi SSE 6.9 mph - N/A   Overcast
10:07 AM 62.6 °F 57.2 °F 82% 29.96 in 10.0 mi SSE 6.9 mph - N/A   Overcast
10:53 AM 64.9 °F 57.9 °F 78% 29.96 in 10.0 mi SE 6.9 mph - 0.00 in   Overcast
11:31 AM 66.2 °F 57.2 °F 73% 29.97 in 10.0 mi SSE 8.1 mph - N/A   Overcast
11:53 AM 66.9 °F 57.9 °F 73% 29.95 in 10.0 mi South 5.8 mph - N/A   Overcast
12:53 PM 69.1 °F 57.9 °F 68% 29.94 in 10.0 mi South 5.8 mph - N/A   Overcast
1:53 PM 68.0 °F 57.9 °F 70% 29.92 in 10.0 mi South 11.5 mph - N/A   Mostly Cloudy
2:53 PM 71.1 °F 57.9 °F 63% 29.89 in 10.0 mi SSE 6.9 mph - N/A   Mostly Cloudy
3:53 PM 71.1 °F 57.0 °F 61% 29.87 in 10.0 mi SE 5.8 mph - N/A   Mostly Cloudy
4:53 PM 71.1 °F 57.0 °F 61% 29.86 in 10.0 mi SW 5.8 mph - N/A   Mostly Cloudy
5:53 PM 71.1 °F 59.0 °F 66% 29.84 in 10.0 mi WSW 3.5 mph - N/A   Mostly Cloudy
6:53 PM 71.1 °F 57.0 °F 61% 29.82 in 10.0 mi SSE 4.6 mph - N/A   Mostly Cloudy
7:53 PM 70.0 °F 59.0 °F 68% 29.82 in 10.0 mi SSE 6.9 mph - N/A   Mostly Cloudy
8:53 PM 68.0 °F 59.0 °F 73% 29.83 in 10.0 mi South 4.6 mph - N/A   Mostly Cloudy
9:53 PM 66.9 °F 59.0 °F 76% 29.84 in 10.0 mi South 6.9 mph - N/A   Mostly Cloudy
10:53 PM 66.0 °F 59.0 °F 78% 29.84 in 10.0 mi SSE 5.8 mph - N/A   Mostly Cloudy
11:53 PM 66.0 °F 59.0 °F 78% 29.84 in 10.0 mi South 4.6 mph - N/A   Overcast